CW6259 Weather Reports


time (UTC)temp
C
wind
direction
speed
KPH
gust
KPH
rain 1hr
cm
rain 24hr
cm
rain mn
cm
humidity
%
barometer
mb
20260505101016 11 0.0 6.4 0.00 0.00 0.00 90 1013.2
20260505100516 11 0.0 8.0 0.00 0.00 0.00 90 1013.2
20260505100016 11 0.0 1.6 0.00 0.00 0.00 90 1013.1
20260505095516 11 0.0 0.0 0.00 0.00 0.00 90 1013.1
20260505095037 11 0.0 0.0 0.00 0.00 0.00 89 1013.0
20260505094517 11 0.0 1.6 0.00 0.00 0.00 89 1013.0
20260505094036 11 0.0 1.6 0.00 0.00 0.00 89 1012.9
20260505093516 11 0.0 4.8 0.00 0.00 0.00 89 1012.8
20260505093016 11 0.0 3.2 0.00 0.00 0.00 89 1012.8
20260505092516 11 0.0 3.2 0.00 0.00 0.00 89 1012.7
20260505092016 11 180 1.6 6.4 0.00 0.00 0.00 89 1012.6
20260505091516 11 0.0 9.7 0.00 0.00 0.00 89 1012.6
20260505091036 11 225 1.6 9.7 0.00 0.00 0.00 89 1012.6
20260505090516 11 0.0 6.4 0.00 0.00 0.00 89 1012.6
20260505090036 11 0.0 8.0 0.00 0.00 0.00 89 1012.6
20260505085516 11 0.0 3.2 0.00 0.00 0.00 89 1012.6
20260505085016 11 0.0 8.0 0.00 0.00 0.00 88 1012.6
20260505084516 11 0.0 4.8 0.00 0.00 0.00 88 1012.6
20260505084016 11 0.0 3.2 0.00 0.00 0.00 88 1012.5
20260505083536 11 0.0 1.6 0.00 0.00 0.00 88 1012.4
20260505083056 12 0.0 1.6 0.00 0.00 0.00 88 1012.4
20260505082516 12 0.0 1.6 0.00 0.00 0.00 87 1012.4
20260505082016 12 0.0 1.6 0.00 0.00 0.00 87 1012.4
20260505081516 12 0.0 6.4 0.00 0.00 0.00 87 1012.3
20260505081016 12 0.0 4.8 0.00 0.00 0.00 87 1012.3
20260505080516 12 0.0 4.8 0.00 0.00 0.00 87 1012.3
20260505080016 12 0.0 4.8 0.00 0.00 0.00 87 1012.3
20260505075516 12 0.0 1.6 0.00 0.00 0.00 87 1012.3
20260505075157 12 0.0 3.2 0.00 0.00 0.00 86 1012.4
20260505074516 12 0.0 1.6 0.00 0.00 0.00 86 1012.3
20260505074016 12 0.0 3.2 0.00 0.00 0.00 86 1012.2
20260505073516 12 0.0 3.2 0.00 0.00 0.00 86 1012.2
20260505073016 12 0.0 3.2 0.00 0.00 0.00 85 1012.2
20260505072536 12 0.0 3.2 0.00 0.00 0.00 85 1012.1
20260505072015 12 0.0 1.6 0.00 0.00 0.00 85 1011.9
20260505071515 12 0.0 1.6 0.00 0.00 0.00 85 1011.8
20260505071036 13 0.0 3.2 0.00 0.00 0.00 84 1011.8
20260505070536 13 0.0 1.6 0.00 0.00 0.00 84 1011.8
20260505070017 13 0.0 1.6 0.00 0.00 0.00 84 1011.8
20260505065516 13 0.0 3.2 0.00 0.00 0.00 83 1011.6
20260505065016 13 0.0 1.6 0.00 0.00 0.00 83 1011.6
20260505064536 13 0.0 1.6 0.00 0.00 0.00 82 1011.6
20260505064016 13 0.0 6.4 0.00 0.00 0.00 82 1011.5
20260505063516 13 0.0 0.0 0.00 0.00 0.00 81 1011.6
20260505063016 13 0.0 0.0 0.00 0.00 0.00 81 1011.5
20260505062515 14 0.0 6.4 0.00 0.00 0.00 81 1011.5
20260505062015 14 0.0 3.2 0.00 0.00 0.00 80 1011.5
20260505061516 14 0.0 1.6 0.00 0.00 0.00 80 1011.3
20260505061016 14 0.0 1.6 0.00 0.00 0.00 80 1011.2
20260505060515 14 0.0 3.2 0.00 0.00 0.00 80 1011.1
20260505060036 15 0.0 0.0 0.00 0.00 0.00 79 1011.0
20260505055516 15 0.0 0.0 0.00 0.00 0.00 79 1010.9
20260505055037 15 0.0 1.6 0.00 0.00 0.00 78 1010.9
20260505054537 15 0.0 0.0 0.00 0.00 0.00 78 1010.9
20260505054018 15 0.0 4.8 0.00 0.00 0.00 77 1010.9
20260505053517 15 0.0 3.2 0.00 0.00 0.00 77 1010.9
20260505053017 15 0.0 1.6 0.00 0.00 0.00 77 1010.8
20260505052517 15 0.0 0.0 0.00 0.00 0.00 76 1010.7
20260505052038 16 0.0 0.0 0.00 0.00 0.00 76 1010.7
20260505051517 16 0.0 1.6 0.00 0.00 0.00 76 1010.7
20260505051018 16 0.0 0.0 0.00 0.00 0.00 75 1010.6
20260505050517 16 225 1.6 6.4 0.00 0.00 0.00 75 1010.6
20260505041517 17 225 1.6 4.8 0.00 0.00 0.00 71 1010.3
20260505041017 17 225 1.6 6.4 0.00 0.00 0.00 70 1010.2
20260505040537 18 225 1.6 12.9 0.00 0.00 0.00 70 1010.1
20260505040037 18 225 1.6 9.7 0.00 0.00 0.00 69 1010.0
20260505035517 18 225 4.8 12.9 0.00 0.00 0.00 68 1009.8
20260505035017 18 225 6.4 17.7 0.00 0.00 0.00 67 1009.7
20260505034517 18 225 6.4 16.1 0.00 0.00 0.00 67 1009.6
20260505034016 19 203 3.2 11.3 0.00 0.00 0.00 66 1009.6
20260505033517 19 225 4.8 14.5 0.00 0.00 0.00 64 1009.5
20260505033017 20 225 4.8 12.9 0.00 0.00 0.00 63 1009.5
20260505032517 20 225 4.8 17.7 0.00 0.00 0.00 62 1009.4
20260505032037 20 225 4.8 12.9 0.00 0.00 0.00 61 1009.4
20260505031516 20 225 1.6 8.0 0.00 0.00 0.00 60 1009.3
20260505031017 20 225 1.6 11.3 0.00 0.00 0.00 59 1009.3
20260505030537 21 225 3.2 9.7 0.00 0.00 0.00 58 1009.3
20260505030017 21 225 1.6 11.3 0.00 0.00 0.00 57 1009.2
20260505025516 21 203 1.6 11.3 0.00 0.00 0.00 57 1009.2
20260505025016 21 225 1.6 8.0 0.00 0.00 0.00 57 1009.1
20260505024516 21 0.0 3.2 0.00 0.00 0.00 56 1009.1
20260505024016 21 0.0 4.8 0.00 0.00 0.00 56 1009.0
20260505023516 22 0.0 4.8 0.00 0.00 0.00 55 1009.1
20260505023037 22 0.0 4.8 0.00 0.00 0.00 54 1009.1
20260505022517 22 0.0 0.0 0.00 0.00 0.00 54 1009.0
20260505022036 22 0.0 0.0 0.00 0.00 0.00 53 1009.0
20260505021516 23 0.0 1.6 0.00 0.00 0.00 53 1009.1
20260505021016 23 203 1.6 8.0 0.00 0.00 0.00 52 1009.1
20260505020516 23 225 4.8 16.1 0.00 0.00 0.00 51 1009.1
20260505020016 23 225 1.6 11.3 0.00 0.00 0.00 51 1009.1
20260505015516 23 0.0 4.8 0.00 0.00 0.00 52 1009.0
20260505015017 23 225 1.6 6.4 0.00 0.00 0.00 51 1009.0
20260505014516 24 225 1.6 8.0 0.00 0.00 0.00 51 1009.1
20260505014016 24 225 1.6 8.0 0.00 0.00 0.00 50 1009.1
20260505013516 24 225 1.6 6.4 0.00 0.00 0.00 49 1009.1
20260505013016 24 225 3.2 9.7 0.00 0.00 0.00 48 1009.1
20260505012516 24 0.0 4.8 0.00 0.00 0.00 47 1009.1
20260505012016 25 225 3.2 8.0 0.00 0.00 0.00 47 1009.1
20260505011517 25 225 1.6 6.4 0.00 0.00 0.00 46 1009.2
20260505011016 25 0.0 4.8 0.00 0.00 0.00 46 1009.2
20260505010536 25 0.0 3.2 0.00 0.00 0.00 46 1009.2
20260505010016 25 0.0 4.8 0.00 0.00 0.00 45 1009.2
20260505005516 25 0.0 1.6 0.00 0.00 0.00 45 1009.2
20260505005016 25 248 1.6 6.4 0.00 0.00 0.00 45 1009.3
20260505004516 25 225 1.6 8.0 0.00 0.00 0.00 44 1009.2
20260505004016 25 225 1.6 6.4 0.00 0.00 0.00 45 1009.3
20260505003516 25 225 1.6 11.3 0.00 0.00 0.00 45 1009.3
20260505003016 25 225 1.6 9.7 0.00 0.00 0.00 42 1009.3
20260505002516 25 225 1.6 8.0 0.00 0.00 0.00 42 1009.3
20260505002016 26 225 1.6 11.3 0.00 0.00 0.00 41 1009.4
20260505001516 26 225 3.2 11.3 0.00 0.00 0.00 40 1009.4
20260505001016 27 225 1.6 9.7 0.00 0.00 0.00 40 1009.5
20260505000516 27 0.0 6.4 0.00 0.00 0.00 40 1009.5
20260505000016 27 225 1.6 12.9 0.00 0.00 0.00 40 1009.4
20260504235516 28 225 1.6 11.3 0.00 0.00 0.00 37 1009.5
20260504235016 28 0.0 8.0 0.00 0.00 0.00 38 1009.5
20260504234516 28 0.0 3.2 0.00 0.00 0.00 40 1009.6
20260504234016 28 0.0 6.4 0.00 0.00 0.00 39 1009.6
20260504233516 28 0.0 0.0 0.00 0.00 0.00 40 1009.7
20260504233036 28 225 1.6 9.7 0.00 0.00 0.00 38 1009.6
20260504232516 28 0.0 6.4 0.00 0.00 0.00 37 1009.6
20260504232015 28 0.0 1.6 0.00 0.00 0.00 38 1009.7
20260504231516 27 0.0 0.0 0.00 0.00 0.00 39 1009.6
20260504231016 27 225 1.6 12.9 0.00 0.00 0.00 37 1009.7
20260504230516 27 0.0 9.7 0.00 0.00 0.00 38 1009.7
20260504230016 27 225 1.6 11.3 0.00 0.00 0.00 40 1009.7
20260504225516 27 0.0 9.7 0.00 0.00 0.00 40 1009.8
20260504225036 27 0.0 1.6 0.00 0.00 0.00 38 1009.9
20260504224516 27 225 1.6 11.3 0.00 0.00 0.00 38 1010.0
20260504224016 27 0.0 6.4 0.00 0.00 0.00 37 1010.0
20260504223516 27 225 1.6 9.7 0.00 0.00 0.00 37 1010.0
20260504223016 27 225 1.6 8.0 0.00 0.00 0.00 37 1010.1
20260504222516 27 225 1.6 8.0 0.00 0.00 0.00 35 1010.2
20260504222016 27 225 1.6 9.7 0.00 0.00 0.00 35 1010.3
20260504221516 27 0.0 8.0 0.00 0.00 0.00 38 1010.3
20260504221016 26 0.0 1.6 0.00 0.00 0.00 38 1010.3
20260504220536 26 203 3.2 12.9 0.00 0.00 0.00 37 1010.4
20260504220016 26 225 1.6 9.7 0.00 0.00 0.00 39 1010.5
20260504215515 26 225 1.6 14.5 0.00 0.00 0.00 39 1010.5
20260504215036 26 0.0 6.4 0.00 0.00 0.00 42 1010.5
20260504214516 26 225 1.6 9.7 0.00 0.00 0.00 43 1010.6
20260504214036 26 0.0 9.7 0.00 0.00 0.00 47 1010.6
20260504213536 26 225 3.2 14.5 0.00 0.00 0.00 46 1010.6
20260504213016 26 0.0 3.2 0.00 0.00 0.00 49 1010.6
20260504212516 26 225 1.6 9.7 0.00 0.00 0.00 46 1010.6
20260504212056 25 248 1.6 8.0 0.00 0.00 0.00 48 1010.7
20260504211516 25 270 1.6 8.0 0.00 0.00 0.00 46 1010.7
20260504211035 25 225 4.8 16.1 0.00 0.00 0.00 44 1010.7
20260504210515 25 225 1.6 11.3 0.00 0.00 0.00 44 1010.7
20260504210015 25 225 3.2 14.5 0.00 0.00 0.00 46 1010.7
20260504205515 25 225 1.6 12.9 0.00 0.00 0.00 45 1010.7
20260504205015 25 225 1.6 9.7 0.00 0.00 0.00 45 1010.7
20260504204515 25 225 1.6 4.8 0.00 0.00 0.00 43 1010.7
20260504204015 25 203 3.2 12.9 0.00 0.00 0.00 40 1010.8
20260504203515 25 248 1.6 8.0 0.00 0.00 0.00 43 1010.8
20260504203018 25 225 1.6 9.7 0.00 0.00 0.00 41 1010.7
20260504202515 24 270 1.6 12.9 0.00 0.00 0.00 41 1010.8
20260504202037 24 225 3.2 17.7 0.00 0.00 0.00 45 1010.8
20260504201517 24 225 4.8 17.7 0.00 0.00 0.00 46 1010.8
20260504201017 23 225 1.6 9.7 0.00 0.00 0.00 52 1010.8
20260504200518 23 225 1.6 9.7 0.00 0.00 0.00 48 1010.8
20260504200017 24 225 4.8 14.5 0.00 0.00 0.00 46 1010.8
20260504195537 24 225 1.6 8.0 0.00 0.00 0.00 46 1010.7
20260504195037 24 248 1.6 6.4 0.00 0.00 0.00 46 1010.8
20260504194517 23 225 1.6 8.0 0.00 0.00 0.00 45 1010.7
20260504194018 23 225 4.8 12.9 0.00 0.00 0.00 44 1010.7
20260504193517 23 225 3.2 14.5 0.00 0.00 0.00 42 1010.8
20260504193037 24 225 3.2 12.9 0.00 0.00 0.00 41 1010.8
20260504192517 24 225 1.6 8.0 0.00 0.00 0.00 41 1010.9
20260504192037 24 0.0 4.8 0.00 0.00 0.00 41 1010.9
20260504191517 24 225 1.6 11.3 0.00 0.00 0.00 43 1010.9
20260504191017 24 0.0 4.8 0.00 0.00 0.00 44 1011.0
20260504190517 24 225 1.6 8.0 0.00 0.00 0.00 45 1011.0
20260504190017 24 0.0 4.8 0.00 0.00 0.00 43 1011.1
20260504185517 23 0.0 3.2 0.00 0.00 0.00 45 1011.1
20260504185017 23 0.0 4.8 0.00 0.00 0.00 47 1011.1
20260504184517 23 0.0 4.8 0.00 0.00 0.00 47 1011.1
20260504184017 23 0.0 4.8 0.00 0.00 0.00 47 1011.1
20260504183516 23 225 1.6 6.4 0.00 0.00 0.00 46 1011.0
20260504183017 23 0.0 4.8 0.00 0.00 0.00 44 1011.1
20260504182517 23 0.0 6.4 0.00 0.00 0.00 47 1011.1
20260504182017 23 0.0 3.2 0.00 0.00 0.00 46 1011.0
20260504181517 22 0.0 4.8 0.00 0.00 0.00 49 1011.1
20260504181017 22 0.0 6.4 0.00 0.00 0.00 49 1011.0
20260504180517 22 0.0 6.4 0.00 0.00 0.00 50 1011.0
20260504180037 22 0.0 6.4 0.00 0.00 0.00 50 1011.0
20260504175517 21 225 1.6 9.7 0.00 0.00 0.00 50 1011.0
20260504175016 22 225 1.6 8.0 0.00 0.00 0.00 49 1011.0
20260504174516 21 0.0 4.8 0.00 0.00 0.00 50 1011.1
20260504174017 21 0.0 4.8 0.00 0.00 0.00 52 1011.0
20260504173517 21 0.0 6.4 0.00 0.00 0.00 51 1011.0
20260504173017 21 0.0 6.4 0.00 0.00 0.00 51 1011.0
20260504172516 21 0.0 1.6 0.00 0.00 0.00 54 1011.1
20260504172016 21 0.0 1.6 0.00 0.00 0.00 54 1011.1
20260504171516 20 0.0 3.2 0.00 0.00 0.00 54 1011.0
20260504171017 20 0.0 0.0 0.00 0.00 0.00 56 1011.0
20260504170516 20 0.0 1.6 0.00 0.00 0.00 54 1011.0
20260504151036 15 0.0 0.0 0.00 0.00 0.00 78 1010.4
20260504150516 14 0.0 0.0 0.00 0.00 0.00 79 1010.2
20260504141017 12 0.0 0.0 0.00 0.00 0.00 83 1010.0
20260504140516 12 0.0 0.0 0.00 0.00 0.00 82 1010.0
20260504130516 12 0.0 0.0 0.00 0.00 0.00 76 1009.4
20260504110517 13 0.0 0.0 0.00 0.00 0.00 70 1009.5